Location: *
(48.7358°N, 0.3111°E)
Time: 00:38:59
(UTC+00:00)

Cosmos 1626 Rocket - Pass Details

Date: 22 October 2019
Orbit: 604 x 630 km, 82.5° (Epoch: 15 November)

Event Time Altitude Azimuth Distance (km) Brightness Sun altitude
Rises 05:15:17 0° 183° (S) 2,845 7.0 -12.8°
Reaches altitude 10° 05:17:29 10° 182° (S) 1,947 6.1 -12.5°
Maximum altitude 05:21:46 75° 97° (E) 632 3.7 -11.7°
Drops below altitude 10° 05:26:07 10° 13° (NNE) 1,970 6.3 -11.0°
Sets 05:28:21 0° 12° (NNE) 2,882 7.1 -10.7°
